Flag for Cuba Weather past 2 weeks in Camagüey, Cuba

Now
75 °F

Passing clouds.


Feels Like: 75 °F
Forecast: 75 / 88 °F
Wind: 7 mph from East

Location: Camaguey Aeropuerto

Current Time: Sep 1, 2014 at 7:23:48 AM

Latest Report: Sep 1, 2014 at 6:53 AM


Visibility: 5 mi

Pressure: 30.04 "Hg

Humidity: 89%

Dew point: 72 °F

Location of CamagüeyLocation

Historic Weather in Camagüey — Graph

°F

Camagüey temperature yesterday

Maximum temperature yesterday: 90 °F (at 1:52 PM)
Minimum temperature yesterday: 72 °F (at 1:59 AM)
Average temperature yesterday: 80 °F

Past Weeks' High & Low Weather Summary

 TemperatureHumidityPressure
High95 °F (Aug 18, 3:50 PM)94% (Aug 18, 5:50 AM)30.09 "Hg (Aug 18, 5:50 AM)
Low70 °F (Aug 18, 8:50 PM)30% (Aug 25, 1:52 PM)29.74 "Hg (Aug 24, 3:50 PM)
Average81 °F74%29.97 "Hg
* Reported Aug 17 5:50 AM — Sep 1 5:50 AM, Camagüey, Weather by CustomWeather, © 2014

Note: Actual official high and low records may vary slightly from our data, if they occured in-between our weather recording intervals... More about our weather records

Advertising

Camagüey weather history for previous 24 hours

 ConditionsComfort  
Time TempWeatherWind HumidityBarometerVisibility
5:50 AM
Sep 1
75 °FPassing clouds.5 mph89%30.01 "Hg6 mi
4:50 AM75 °FPassing clouds.6 mph89%30.01 "Hg6 mi
3:50 AM75 °FPassing clouds.6 mph94%30.01 "Hg6 mi
2:50 AM75 °FClear.6 mph89%30.04 "Hg6 mi
1:50 AM75 °FClear.7 mph94%30.04 "Hg6 mi
12:50 AM75 °FClear.8 mph94%30.04 "Hg6 mi
11:50 PM
Aug 31
77 °FClear.7 mph89%30.04 "Hg6 mi
10:50 PM77 °FClear.8 mph89%30.07 "Hg6 mi
9:50 PM77 °FPassing clouds.7 mph89%30.07 "Hg6 mi
8:50 PM77 °FPassing clouds.7 mph83%30.04 "Hg6 mi
7:50 PM81 °FPassing clouds.10 mph74%30.04 "Hg6 mi
6:50 PM84 °FPassing clouds.14 mph66%30.04 "Hg6 mi
5:51 PM86 °FScattered clouds.14 mph62%30.04 "Hg6 mi
4:51 PM90 °FPassing clouds.16 mph49%30.01 "HgN/A
3:52 PM88 °FPartly sunny.16 mph55%30.04 "HgN/A
2:52 PM90 °FScattered clouds.15 mph52%30.04 "HgN/A
1:52 PM90 °FPartly sunny.15 mph52%30.07 "Hg6 mi
12:53 PM88 °FScattered clouds.15 mph55%30.09 "HgN/A
11:50 AM88 °FPartly sunny.16 mph59%30.09 "HgN/A
10:51 AM84 °FPartly sunny.15 mph66%30.09 "Hg6 mi
9:50 AM82 °FPartly sunny.15 mph74%30.09 "Hg6 mi
8:50 AM81 °FPassing clouds.9 mph84%30.07 "Hg6 mi
7:51 AM75 °FPassing clouds.7 mph94%30.07 "Hg6 mi
Weather by CustomWeather, © 2014

See weather overviewHow to use our weather pages